Location: Gunung Kajang
(2.4167°N, 113.7167°E)
Time: 21:49:20
(UTC+00:00)

YAOGAN 6 - Pass Details

Date: 29 May 2022
Orbit: 460 x 493 km, 97.1° (Epoch: 24 June)

Event Time Altitude Azimuth Distance (km) Brightness Sun altitude
Rises 20:20:00 0° 20° (NNE) 2,555 6.9 -27.2°
Reaches altitude 10° 20:22:07 10° 26° (NNE) 1,679 5.9 -26.8°
Enters shadow 20:25:06 43° 72° (ENE) 696 3.7 -26.1°
